Погода в Лыковщине

Россия / Республика Мордовия     54°19′03″N   45°29′13″E
темп.,
°C
ветер,
м/с
пор.,
м/с
влажн.,
%
обл.,
%
осадки,
мм/ч
давл.,
гПа
погр.,
м
16 апреля, пт
пт1600:00+12вюв1171100 0.0 101711
03:00+11вюв1167100 0.0 101710
06:00+10всв2267100 0.0 101815
09:00+14в4754100 0.0 1019298
12:00+18в6744100 0.0 1019778
15:00+18в674599 0.0 10191242
18:00+15всв61167100 0.0 1020436
21:00+11всв61379100 0.0 1022349
17 апреля, сб
сб1700:00+8всв6128544 0.0 1022306
03:00+7всв5118714 0.0 1023250
06:00+6всв612915 0.0 1023296
09:00+11в710756 0.0 1023456
12:00+14в79615 0.0 1022812
15:00+15в78545 0.0 10221135
18:00+13всв811612 0.0 1021654
21:00+8всв7146249 0.0 1022369
18 апреля, вс
вс1800:00+7в61460100 0.0 1022372
03:00+6в51164100 0.0 1022295
06:00+5в61268100 0.2 1022368
09:00+5в61279100 1.7 1022423
12:00+5всв61284100 2.6 1022489
15:00+6в5118799 4.0 1023521
18:00+6в41182100 0.1 1023446
21:00+6в41287100 0.1 1023394
19 апреля, пн
пн1900:00+7в4117895 0.0 1023375
03:00+5всв61388100 0.0 1024467
06:00+5в61289100 0.0 1025659
09:00+5в61286100 0.0 1025698
12:00+7в71066100 0.0 1025983
15:00+9в81059100 0.0 10251252
18:00+7в61168100 0.0 10251087
21:00+5в71287100 0.1 1026804
20 апреля, вт
вт2000:00+3в71294100 0.1 1025708
03:00+3вюв71396100 0.4 1025597
06:00+3в71390100 0.0 1025640
09:00+3вюв81590100 0.0 1025718
12:00+5вюв91479100 0.0 1023771
15:00+5вюв91573100 0.0 1022825
18:00+5юв91871100 0.0 1021838
21:00+6юв102068100 0.0 1021822